Change the Weather History Date:

Sunday, October 21, 2012

  Actual Average (KMKC) Record (KMKC)
Temperature  
Mean Temperature 64 °F -  
Max Temperature 75 °F 64 °F 80 °F (1999)
Min Temperature 54 °F 46 °F 35 °F (2011)
Growing Degree Days 14 (Base 50)    
Moisture  
Dew Point 57 °F    
Average Humidity 71    
Maximum Humidity 80    
Minimum Humidity 63    
Precipitation  
Precipitation 0.00 in - - ()
Sea Level Pressure  
Sea Level Pressure 29.79 in    
Wind  
Wind Speed 7 mph (SSE)    
Max Wind Speed 13 mph    
Max Gust Speed 21 mph    
Visibility 10 miles    
Events      
Averages and records for this station are not official NWS values.
T = Trace of Precipitation, MM = Missing Value Source: NWS Daily Summary

Daily Weather History Graph

Daily Weather History Graph

Search for Another Location

Airport or City:

Trip Planner

Search our weather history database for the weather conditions in past years. The results will help you decide how hot, cold, wet, or windy it might be!

Date:

Astronomy

Oct. 21, 2012 Rise Set
Actual Time 7:33 AM CDT 6:29 PM CDT
Civil Twilight 7:06 AM CDT 6:56 PM CDT
Nautical Twilight 6:35 AM CDT 7:28 PM CDT
Astronomical Twilight 6:04 AM CDT 7:58 PM CDT
Moon 1:54 PM CDT (10/21) No Moon Set
Length of Visible Light 11h 50m
Length of Day
10h 56m
Waxing Crescent, 45% of the Moon is Illuminated
Oct 21
Waxing Crescent
Oct 21
First Quarter
Oct 29
Full
Nov 6
Last Quarter
Nov 13
New

Hourly Weather History & Observations

Time (CDT) Temp. Dew Point Humidity Pressure Visibility Wind Dir Wind Speed Gust Speed Precip Events Conditions
12:53 AM 54.0 °F 43.0 °F 66% 29.77 in 10.0 mi ESE 4.6 mph - N/A   Clear
1:53 AM 54.0 °F 44.1 °F 69% 29.77 in 10.0 mi SSE 3.5 mph - N/A   Clear
2:53 AM 57.0 °F 46.9 °F 69% 29.77 in 10.0 mi South 6.9 mph - N/A   Clear
3:53 AM 55.9 °F 46.9 °F 72% 29.77 in 10.0 mi South 5.8 mph - N/A   Clear
4:53 AM 55.9 °F 46.9 °F 72% 29.78 in 10.0 mi South 6.9 mph - N/A   Clear
5:53 AM 54.0 °F 48.0 °F 80% 29.79 in 10.0 mi SE 3.5 mph - N/A   Clear
6:53 AM 55.0 °F 48.0 °F 77% 29.80 in 10.0 mi Variable 3.5 mph - N/A   Clear
7:53 AM 57.0 °F 48.9 °F 74% 29.81 in 10.0 mi SSE 4.6 mph - N/A   Clear
8:53 AM 60.1 °F 48.9 °F 67% 29.82 in 10.0 mi South 10.4 mph - N/A   Clear
9:53 AM 64.0 °F 52.0 °F 65% 29.83 in 10.0 mi South 9.2 mph 18.4 mph N/A   Clear
10:53 AM 70.0 °F 57.0 °F 63% 29.83 in 10.0 mi South 9.2 mph 18.4 mph N/A   Clear
11:53 AM 72.0 °F 61.0 °F 68% 29.83 in 10.0 mi South 12.7 mph 20.7 mph N/A   Clear
12:53 PM 72.0 °F 63.0 °F 73% 29.82 in 10.0 mi South 10.4 mph - N/A   Mostly Cloudy
1:53 PM 73.0 °F 63.0 °F 71% 29.80 in 10.0 mi South 8.1 mph 18.4 mph N/A   Overcast
2:53 PM 75.0 °F 64.0 °F 69% 29.78 in 10.0 mi South 10.4 mph 18.4 mph N/A   Overcast
3:40 PM 75.2 °F 64.4 °F 69% 29.79 in 10.0 mi South 6.9 mph - N/A   Overcast
3:53 PM 75.0 °F 64.0 °F 69% 29.77 in 10.0 mi SSE 10.4 mph - N/A   Overcast
4:53 PM 75.0 °F 64.9 °F 71% 29.76 in 10.0 mi SSE 6.9 mph 17.3 mph N/A   Overcast
5:53 PM 73.9 °F 64.9 °F 73% 29.77 in 10.0 mi SSE 10.4 mph - N/A   Overcast
6:53 PM 73.9 °F 64.9 °F 73% 29.76 in 10.0 mi SSE 9.2 mph - N/A   Overcast
7:53 PM 73.0 °F 64.0 °F 73% 29.78 in 10.0 mi SSE 6.9 mph - N/A   Clear
8:53 PM 73.0 °F 64.0 °F 73% 29.78 in 10.0 mi SSE 6.9 mph - N/A   Scattered Clouds
9:53 PM 73.0 °F 64.9 °F 76% 29.80 in 10.0 mi SSE 8.1 mph - N/A   Overcast
10:53 PM 73.0 °F 64.9 °F 76% 29.80 in 10.0 mi Variable 5.8 mph - N/A   Overcast
11:53 PM 71.1 °F 64.0 °F 78% 29.80 in 10.0 mi SSE 5.8 mph - N/A   Scattered Clouds